Regional Weather Roundup
Issued by NWS San Diego, CA

Home | Current Version | Previous Version | Text Only | Print | Product List | Glossary On
Versions: 1 2 3 4 5 6 7 8 9 10 11 12 13 14 15 16 17 18 19 20 21 22 23 24 25 26 27 28 29 30 31 32 33 34 35 36 37 38 39 40 41 42 43 44 45 46 47 48 49 50
000
ASUS46 KSGX 241611
RWRSGX

SAN DIEGO HOURLY WEATHER ROUNDUP
NATIONAL WEATHER SERVICE SAN DIEGO CA
900 AM PDT MON JUL 24 2017

NOTE: "FAIR" INDICATES FEW OR NO CLOUDS BELOW 12,000 FEET WITH NO
SIGNIFICANT WEATHER AND/OR OBSTRUCTIONS TO VISIBILITY.

CAZ042-043-060-061-PZZ750-775-241700-

GREATER SAN DIEGO AREA

CITY           SKY/WX    TMP DP  RH WIND       PRES   REMARKS
SAN DIEGO AP   CLOUDY    71  64  78 SW5       29.95R
NATIONAL CITY    N/A     71  66  84 CALM      29.95R
CHULA VISTA      N/A     71  66  85 W3        29.86R
IMPERIAL BEACH CLOUDY    68  65  90 SW5       29.95R
BROWN FIELD    CLOUDY    70  65  84 VRB3      29.94S
MIRAMAR MCAS   LGT RAIN  77  63  61 CALM      29.94R
MONTGOMERY FLD LGT RAIN  73  64  73 SW3       29.94R
GILLESPIE FLD  CLOUDY    70  64  83 CALM      29.94R

$$

NORTH SAN DIEGO COUNTY

CITY           SKY/WX    TMP DP  RH WIND       PRES   REMARKS
CAMP PENDLETON CLOUDY    63  59  88 S7        29.93R
OCEANSIDE AP   CLOUDY    73  66  78 SW5       29.93R
OCEANSIDE HBR    N/A     72  66  82 CALM      29.96R
VISTA            N/A     71  65  81 CALM      29.91R
CARLSBAD       CLOUDY    71  65  81 SW6       29.93R
DEL MAR          N/A     69  66  89 CALM      29.95R
LA JOLLA SCRIP   N/A     69  66  88 SW3       29.93R
FALLBROOK        N/A     70  68  95 CALM      29.95R
ESCONDIDO        N/A     69  64  83 CALM      29.94R
SAN MARCOS       N/A     69  64  83 CALM      29.95R
POWAY            N/A     70  63  79 CALM      29.93S

$$

EAST SAN DIEGO COUNTY

CITY           SKY/WX    TMP DP  RH WIND       PRES   REMARKS
RAMONA         LGT RAIN  67  65  93 W5        29.96F
SANTEE LAKES     N/A     69  64  86 CALM      29.92R
LA MESA          N/A     69  65  87 CALM      29.86R
JAMUL            N/A     68  64  85 CALM      29.92S
DESCANSO N       N/A     66  63  90 E2        29.80S
CAMPO            N/A     69  65  86 CALM      29.97R

$$

ORANGE COUNTY AND THE LOS ANGELES BASIN

CITY           SKY/WX    TMP DP  RH WIND       PRES   REMARKS
JOHN WAYNE AP  PTSUNNY   73  64  73 W3        29.92R
LAKE FOREST FR   N/A     68  61  78 CALM      29.82R
HUNTINGTON BCH   N/A     71  67  87 W3        29.94R
LOS ALAMITOS   PTSUNNY   72  64  77 S3        29.92R
FULLERTON      MOSUNNY   73  65  75 CALM      29.91R
LONG BEACH     PTSUNNY   73  64  73 SW3       29.92S
L.A. AP        PTSUNNY   73  65  75 CALM      29.92S
L.A. DOWNTOWN  SUNNY     75  64  68 CALM      29.91R

$$

THE INLAND EMPIRE

CITY           SKY/WX    TMP DP  RH WIND       PRES   REMARKS
CORONA         MOSUNNY   72  63  73 CALM      29.94R
CHINO          PTSUNNY   76  63  64 CALM      29.94S
ONTARIO        PTSUNNY   76  61  59 CALM      29.94R
SAN BERNARDINO CLOUDY    75  59  57 CALM      29.96R HAZE
RIVERSIDE AP   MOSUNNY   73  63  70 VRB3      29.94R
MORENO VALLEY    N/A     76  64  65 CALM      28.06R
MARCH ARB      LGT RAIN  73  61  64 E5        29.96R
HORSETHIEF CYN   N/A     71  58  64 CALM      29.91R
PERRIS           N/A     70  63  77 NE1       29.95R
HEMET EAST       N/A     73  56  54 CALM      29.94R
FRENCH VALLEY  PTSUNNY   72  61  68 SW3       29.96R
TEMECULA         N/A     71  65  81 CALM      30.01R

$$

SAN BERNARDINO AND RIVERSIDE COUNTY MOUNTAINS

CITY           SKY/WX    TMP DP  RH WIND       PRES   REMARKS
BIG BEAR AP    PTSUNNY   68  48  49 NE6       30.23S
ANGELUS OAKS     N/A     68  51  55 CALM      29.71R
PINE COVE        N/A     66  48  51 CALM      29.80R

$$

SOUTHERN DESERT INCLUDING THE COACHELLA VALLEY

CITY           SKY/WX    TMP DP  RH WIND       PRES   REMARKS
PALM SPRINGS   CLOUDY    88  64  44 VRB3      29.88R
THOUSAND PALMS   N/A     88  65  45 W2        29.82S
PALM DESERT      N/A     87  62  42 CALM      26.99S
THERMAL        CLOUDY    87  71  58 SE6       29.82R
BLYTHE         CLOUDY    83  73  72 SE12      29.87R
IMPERIAL AP    MOSUNNY   89  72  56 SE9       29.81S HX  96
EL CENTRO NAS  PTSUNNY   88  73  61 SE6       29.83S HX  95
YUMA AZ        LGT RAIN  89  70  53 E10       29.83S
MEXICALI       PTSUNNY   90  66  45 E8        29.83S

$$

UPPER DESERT

CITY           SKY/WX    TMP DP  RH WIND       PRES   REMARKS
VICTORVILLE AP MOSUNNY   86  43  22 CALM      29.96S
HESPERIA         N/A     85  43  22 W2        29.89R
PALMDALE       MOSUNNY   87  34  15 SW9       29.93S
LANCASTER      MOSUNNY   85  29  13 W18       29.92S
EDWARDS AFB    PTSUNNY   87  34  15 SW14      29.90S
DAGGETT        MOSUNNY   90  45  21 CALM      29.89S
29 PALMS N     PTSUNNY   86  62  44 VRB5      29.99R
NEEDLES        PTSUNNY   94  65  38 S6        29.87S HX  96

$$

REGIONAL REPORTS

CITY           SKY/WX    TMP DP  RH WIND       PRES   REMARKS
SANTA BARBARA  CLOUDY    67  62  84 E5        29.91S
SANDBERG       MOSUNNY   75  29  18 S13G22    30.08R
LAS VEGAS NV   PTSUNNY   90  62  39 S6        29.91F
PHOENIX AZ     CLOUDY    77  72  84 E10       29.93R
TIJUANA        CLOUDY    68  64  88 CALM      29.96S
ENSENADA NW      N/A     71  32  24 W1        29.92S

$$

OFFSHORE ISLANDS

CITY           SKY/WX    TMP DP  RH WIND       PRES   REMARKS
CATALINA ARPT  MOSUNNY   69  63  81 VRB5      29.96R
SAN CLEMENTE I CLOUDY    66  59  78 SW6       29.95R
SAN NICOLAS IS PTSUNNY   62  58  86 VRB5      29.93R

$$

MARINE AND OFFSHORE BUOY REPORTS

STATION/POSITION SKY/WX   TEMP    WIND        PRES    VSBY  SWELL
                          AIR SEA DIR/SP/G                  HT/PER/DIR
                          (F)     (DEG/KT/KT) (MB)    (MI)  (FT/S/D)
TANNER BANKS               61 63  250/  2/  4 1013.6R         3/300/10
S CLEMENTE BASIN              71  250/  4/  6 1014.0R         3/190/12
SAN NICOLAS IS.               65                N/A           2/190/11
SO. S. ROSA ISLA           60 63  240/  4/  6 1012.9R         5/300/ 8
W. S. BARBARA CH           57 58  260/  6/  8 1013.0R         3/290/ 9
M. S. BARBARA CH           62 64  280/  4/  4 1013.8R         2/250/ 8
S. MONICA BASIN               72  190/  6/  8 1013.0R         2/190/11
S PEDRO CHANNEL               71                N/A           2/160/11
CMP PENDLETON NS              76                N/A           2/220/14
OCEANSIDE OFFSHR              74                N/A           2/190/12
TORREY PINES OTR              75                N/A           2/200/12
SAN DIEGO BAY                 78              1014.1R
POINT LOMA SOUTH              71                N/A           2/190/11

$$





USA.gov is the U.S. government's official web portal to all federal, state and local government web resources and services.